This is the latest recevied weather packets stored in our database for station/object KE8ZLU. If no packets are shown the sender has not sent any weather packets the latest 10 day(s).
| Time | Temp. | Humidity | Pressure | Rain* | Wind** | Luminosity | Snow |
|---|---|---|---|---|---|---|---|
| 1777821093 | 10.56° C | 55% | 1014.5 hPa | 0 mm | - | 483 W/m² | - |
| 1777820790 | 10.56° C | 55% | 1014.7 hPa | 0 mm | - | 221 W/m² | - |
| 1777820486 | 10.56° C | 56% | 1014.7 hPa | 0 mm | - | 251 W/m² | - |
| 1777820183 | 10° C | 56% | 1014.7 hPa | 0 mm | - | 155 W/m² | - |
| 1777819880 | 10° C | 56% | 1014.6 hPa | 0 mm | - | 138 W/m² | - |
| 1777819578 | 10° C | 57% | 1014.6 hPa | 0 mm | - | 111 W/m² | - |
| 1777819275 | 9.44° C | 57% | 1014.8 hPa | 0 mm | - | 78 W/m² | - |
| 1777818972 | 10° C | 56% | 1014.7 hPa | 0 mm | - | 92 W/m² | - |
| 1777818669 | 10° C | 54% | 1014.9 hPa | 0 mm | - | 97 W/m² | - |
| 1777818365 | 10° C | 55% | 1014.9 hPa | 0 mm | - | 109 W/m² | - |
| 1777818062 | 10° C | 54% | 1015 hPa | 0 mm | - | 110 W/m² | - |
| 1777817758 | 10° C | 54% | 1015 hPa | 0 mm | - | 103 W/m² | - |
| 1777817456 | 10° C | 55% | 1015 hPa | 0 mm | - | 97 W/m² | - |
| 1777817152 | 10° C | 53% | 1015 hPa | 0 mm | - | 75 W/m² | - |
| 1777816850 | 10° C | 55% | 1014.9 hPa | 0 mm | - | 88 W/m² | - |
| 1777816547 | 10° C | 55% | 1015 hPa | 0 mm | - | 118 W/m² | - |
| 1777816244 | 10° C | 55% | 1014.8 hPa | 0 mm | - | 118 W/m² | - |
| 1777815941 | 10° C | 55% | 1014.9 hPa | 0 mm | - | 130 W/m² | - |
| 1777815639 | 10° C | 54% | 1015.1 hPa | 0 mm | - | 133 W/m² | - |
| 1777815336 | 10° C | 55% | 1015 hPa | 0 mm | - | 119 W/m² | - |
| 1777815032 | 10° C | 53% | 1015 hPa | 0 mm | - | 155 W/m² | - |
| 1777814723 | 10° C | 53% | 1015.2 hPa | 0 mm | - | 210 W/m² | - |
| 1777814420 | 10° C | 55% | 1015 hPa | 0 mm | - | 194 W/m² | - |
| 1777814117 | 10.56° C | 54% | 1015 hPa | 0 mm | - | 224 W/m² | - |
| 1777813814 | 10.56° C | 53% | 1015.2 hPa | 0 mm | - | 255 W/m² | - |
* Rain latest hour (hover to see other rain measurements)
** Current wind speed in m/s (hover to see current wind gust speed)